Sigfox identifier Datetime Temperature Humidity SNR
002EED80 2019-04-23 15:12:04 16.3 33 24.8
002EED80 2019-04-23 14:37:21 16.3 33 24.7
002EED80 2019-04-23 14:02:36 16.1 32 24.8
002EED80 2019-04-23 13:27:51 16.1 32 24.8
002EED80 2019-04-23 12:53:07 15.9 32 24.8
002EED80 2019-04-23 12:18:22 15.9 32 24.7
002EED80 2019-04-23 11:43:37 15.9 32 24.6
002EED80 2019-04-23 11:08:52 15.9 32 24.5
002EED80 2019-04-23 10:34:07 15.9 32 24.6
002EED80 2019-04-23 09:59:22 15.9 32 24.5
002EED80 2019-04-23 09:24:38 15.9 32 24.7
002EED80 2019-04-23 08:49:54 15.9 32 24.4
002EED80 2019-04-23 08:15:10 15.8 32 24.2
002EED80 2019-04-23 07:40:28 15.8 32 24.3
002EED80 2019-04-23 07:05:45 15.8 32 24.2
002EED80 2019-04-23 06:31:02 15.8 32 24.2
002EED80 2019-04-23 05:56:20 15.7 32 24.2
002EED80 2019-04-23 05:21:35 15.7 32 24.1
002EED80 2019-04-23 04:46:52 15.8 32 24
002EED80 2019-04-23 04:12:08 15.7 32 23.9
002EED80 2019-04-23 03:37:22 15.7 32 23.9
002EED80 2019-04-23 03:02:38 15.8 32 23.9
002EED80 2019-04-23 02:27:54 15.8 32 23.8
002EED80 2019-04-23 01:53:10 15.9 32 23.8
002EED80 2019-04-23 01:18:26 15.9 32 23.6
002EED80 2019-04-23 00:43:42 15.9 32 23.7
002EED80 2019-04-23 00:08:58 15.9 32 23.7
002EED80 2019-04-22 23:34:14 15.9 32 23.7
002EED80 2019-04-22 22:59:30 15.9 32 23.7
002EED80 2019-04-22 22:24:45 15.9 32 23.7
002EED80 2019-04-22 21:49:59 15.9 32 23.9
002EED80 2019-04-22 21:15:14 16.1 32 23.8
002EED80 2019-04-22 20:40:28 16.1 32 23.8
002EED80 2019-04-22 20:05:44 16.1 32 23.8
002EED80 2019-04-22 19:30:59 16.1 32 23.7
002EED80 2019-04-22 18:56:15 16.1 32 23.1
002EED80 2019-04-22 18:21:33 16.1 32 23.3
002EED80 2019-04-22 17:46:48 16.1 32 23.3
002EED80 2019-04-22 17:12:04 16.1 32 23.3
002EED80 2019-04-22 16:37:20 16 32 23.4
002EED80 2019-04-22 16:02:35 16 32 24
002EED80 2019-04-22 15:27:51 15.9 32 24.1
002EED80 2019-04-22 14:53:06 15.9 31 24.1
002EED80 2019-04-22 14:18:24 15.9 31 24.1
002EED80 2019-04-22 13:43:41 15.9 31 24.1
002EED80 2019-04-22 13:09:00 15.9 31 24.1
002EED80 2019-04-22 12:34:17 15.9 31 24.1
002EED80 2019-04-22 11:59:39 15.9 31 24.2
002EED80 2019-04-22 11:24:53 15.9 31 24.3
002EED80 2019-04-22 10:50:11 15.9 31 24.3
002EED80 2019-04-22 10:15:29 15.8 31 24.3
002EED80 2019-04-22 09:40:48 15.8 31 24.2
002EED80 2019-04-22 09:06:06 15.8 31 24.2
002EED80 2019-04-22 08:31:24 15.8 31 24.2
002EED80 2019-04-22 07:56:42 15.7 31 24.1
002EED80 2019-04-22 07:22:00 15.8 31 24
002EED80 2019-04-22 06:47:18 15.8 31 24
002EED80 2019-04-22 06:12:36 15.8 31 23.9
002EED80 2019-04-22 05:37:54 15.8 31 23.9
002EED80 2019-04-22 05:03:12 15.7 31 23.8
002EED80 2019-04-22 04:28:30 15.7 31 23.7
002EED80 2019-04-22 03:53:47 15.7 31 23.7
002EED80 2019-04-22 03:19:04 15.7 31 23.8
002EED80 2019-04-22 02:44:22 15.7 31 23.7
002EED80 2019-04-22 02:09:39 15.7 31 23.6
002EED80 2019-04-22 01:34:55 15.7 31 23
002EED80 2019-04-22 01:00:12 15.7 31 23
002EED80 2019-04-22 00:25:30 15.7 31 23
002EED80 2019-04-21 23:50:47 15.7 31 23.1
002EED80 2019-04-21 23:16:04 15.7 31 23.2
002EED80 2019-04-21 22:41:20 15.7 31 23.1
002EED80 2019-04-21 22:06:36 15.7 31 23.1
002EED80 2019-04-21 21:31:53 15.7 31 23.1
002EED80 2019-04-21 20:57:10 15.7 31 23.1
002EED80 2019-04-21 20:22:25 15.7 31 23
002EED80 2019-04-21 19:47:41 15.7 31 23.1
002EED80 2019-04-21 19:12:56 15.7 31 23.1
002EED80 2019-04-21 18:38:11 15.7 31 23.1
002EED80 2019-04-21 18:03:27 15.6 31 23.1
002EED80 2019-04-21 17:28:43 15.6 31 23.2
002EED80 2019-04-21 16:53:58 15.7 31 23
002EED80 2019-04-21 16:19:14 15.6 30 23.2
002EED80 2019-04-21 15:44:30 15.6 31 23.3
002EED80 2019-04-21 15:09:46 15.7 30 23.4
002EED80 2019-04-21 14:35:03 15.6 30 23.5
002EED80 2019-04-21 14:00:19 15.6 30 23.5
002EED80 2019-04-21 13:25:34 15.6 30 23.5
002EED80 2019-04-21 12:50:50 15.7 30 23.5
002EED80 2019-04-21 12:16:06 15.6 30 23.5
002EED80 2019-04-21 11:41:22 15.7 30 23.7
002EED80 2019-04-21 11:06:41 15.7 30 23.6
002EED80 2019-04-21 10:31:58 15.7 30 23.6
002EED80 2019-04-21 09:57:15 15.7 30 23.4
002EED80 2019-04-21 09:22:33 15.7 30 23.4
002EED80 2019-04-21 08:47:51 15.8 30 23.3
002EED80 2019-04-21 08:13:08 15.9 30 23.4
002EED80 2019-04-21 07:38:27 15.7 30 23.3
002EED80 2019-04-21 07:03:43 15.9 30 23.3
002EED80 2019-04-21 06:29:00 15.9 30 23.4
002EED80 2019-04-21 05:54:16 15.7 30 23.3
002EED80 2019-04-21 05:19:33 15.7 30 23.3
002EED80 2019-04-21 04:44:52 15.7 30 23.3
002EED80 2019-04-21 04:10:11 15.7 30 23.2
002EED80 2019-04-21 03:35:29 15.7 30 23.2
002EED80 2019-04-21 03:00:45 15.7 30 23.1
002EED80 2019-04-21 02:26:02 15.7 30 23.2
002EED80 2019-04-21 01:51:18 15.7 30 23
002EED80 2019-04-21 01:16:34 15.7 30 22.8
002EED80 2019-04-21 00:41:50 15.7 30 22.7
002EED80 2019-04-21 00:07:04 15.7 30 22.8
002EED80 2019-04-20 23:32:19 15.7 30 22.7
002EED80 2019-04-20 22:57:34 15.7 30 22.7
002EED80 2019-04-20 22:22:50 15.7 30 22.8
002EED80 2019-04-20 21:48:05 15.7 30 22.8
002EED80 2019-04-20 21:13:21 15.7 30 22.9
002EED80 2019-04-20 20:38:38 15.7 30 23
002EED80 2019-04-20 20:03:55 15.7 30 23
002EED80 2019-04-20 19:29:11 15.7 30 23.2
002EED80 2019-04-20 18:54:27 15.7 30 23.3
002EED80 2019-04-20 18:19:43 15.7 30 23.3
002EED80 2019-04-20 17:44:59 15.7 30 23.3
002EED80 2019-04-20 17:10:15 15.7 30 23.5
002EED80 2019-04-20 16:35:29 15.7 30 23.6
002EED80 2019-04-20 16:00:45 15.7 30 23.6
002EED80 2019-04-20 15:25:59 15.7 29 23.6
002EED80 2019-04-20 14:51:16 15.7 29 23.6
002EED80 2019-04-20 14:16:32 15.7 29 23.7
002EED80 2019-04-20 13:41:47 15.7 29 23.8
002EED80 2019-04-20 13:07:03 15.7 29 23.8
002EED80 2019-04-20 12:32:19 15.7 29 24.5
002EED80 2019-04-20 11:57:35 15.7 29 24.4
002EED80 2019-04-20 11:22:50 15.8 29 24.5
002EED80 2019-04-20 10:48:06 15.8 29 24.6
002EED80 2019-04-20 10:13:21 15.9 29 24.6
002EED80 2019-04-20 09:38:35 15.9 29 24.6
002EED80 2019-04-20 09:03:49 15.9 29 24.7
002EED80 2019-04-20 08:29:03 15.9 29 24.6
002EED80 2019-04-20 07:54:18 15.9 29 24.6
002EED80 2019-04-20 07:19:33 15.9 29 24.4
002EED80 2019-04-20 06:44:49 15.9 29 24.3
002EED80 2019-04-20 06:10:04 15.9 29 24.2
002EED80 2019-04-20 05:35:20 15.9 29 24.2
002EED80 2019-04-20 05:00:35 15.9 29 24.1
002EED80 2019-04-20 04:25:50 15.9 29 24.1
002EED80 2019-04-20 03:51:07 16 29 24
002EED80 2019-04-20 03:16:22 16 29 24
002EED80 2019-04-20 02:41:39 16.1 29 23.9
002EED80 2019-04-20 02:06:55 16.1 29 23.8
002EED80 2019-04-20 01:32:12 16.1 29 23.6
002EED80 2019-04-20 00:57:31 16.1 29 23.6
002EED80 2019-04-20 00:22:47 16.1 29 23.6
002EED80 2019-04-19 23:48:04 16.1 29 23.5
002EED80 2019-04-19 23:13:20 16.2 29 23.5
002EED80 2019-04-19 22:38:37 16.3 29 23.5
002EED80 2019-04-19 22:03:53 16.3 29 22.8
002EED80 2019-04-19 21:29:10 16.3 29 22.9
002EED80 2019-04-19 20:54:27 16.3 29 22.9
002EED80 2019-04-19 20:19:43 16.3 29 23
002EED80 2019-04-19 19:44:59 16.4 29 23.1
002EED80 2019-04-19 19:10:16 16.3 29 23.2
002EED80 2019-04-19 18:35:32 16.3 29 23.3
002EED80 2019-04-19 18:00:49 16.3 29 23.4
002EED80 2019-04-19 17:26:06 16.3 29 23.6
002EED80 2019-04-19 16:51:22 16.3 28 23.8
002EED80 2019-04-19 16:16:38 16.3 28 23.9
002EED80 2019-04-19 15:41:54 16.2 28 23.9
002EED80 2019-04-19 15:07:11 16.1 28 24
002EED80 2019-04-19 14:32:28 16.1 28 24
002EED80 2019-04-19 13:57:45 16.1 28 24
002EED80 2019-04-19 13:23:01 16.1 28 24
002EED80 2019-04-19 12:48:17 16.1 28 24
002EED80 2019-04-19 12:13:33 16.1 28 24.1
002EED80 2019-04-19 11:38:50 16.1 28 24.2
002EED80 2019-04-19 11:04:06 16.1 28 24.2
002EED80 2019-04-19 10:29:22 16.1 28 24.2
002EED80 2019-04-19 09:54:38 16.1 28 24.1
002EED80 2019-04-19 09:19:54 16.1 28 24.2
002EED80 2019-04-19 08:45:09 16.1 28 24.2
002EED80 2019-04-19 08:10:24 16.1 28 24.3
002EED80 2019-04-19 07:35:39 16.1 28 24.4
002EED80 2019-04-19 07:00:56 16.1 28 24.5
002EED80 2019-04-19 06:26:12 16.1 28 24.4
002EED80 2019-04-19 05:51:28 16.2 28 24.5
002EED80 2019-04-19 05:16:44 16.2 28 24.4
002EED80 2019-04-19 04:41:58 16.3 28 24.5
002EED80 2019-04-19 04:07:12 16.3 28 24.5
002EED80 2019-04-19 03:32:28 16.3 28 24.6
002EED80 2019-04-19 02:57:43 16.3 28 24.4
002EED80 2019-04-19 02:22:59 16.3 28 24.4
002EED80 2019-04-19 01:48:18 16.5 28 24.4
002EED80 2019-04-19 01:13:30 16.5 27 24.6
002EED80 2019-04-19 00:38:47 16.5 27 24.7
002EED80 2019-04-19 00:04:04 16.5 27 24.7
002EED80 2019-04-18 23:29:20 16.6 27 24.9
002EED80 2019-04-18 22:54:36 16.7 27 25
002EED80 2019-04-18 22:19:55 16.7 27 25.1
002EED80 2019-04-18 21:45:12 16.8 27 25.2
002EED80 2019-04-18 21:10:31 16.8 27 25.2
002EED80 2019-04-18 20:35:51 16.8 27 25.3
002EED80 2019-04-18 20:01:09 16.8 27 25.3
002EED80 2019-04-18 19:26:28 16.8 27 25.3
002EED80 2019-04-18 18:51:47 16.8 27 25.3
002EED80 2019-04-18 18:17:07 16.8 27 25.4
002EED80 2019-04-18 17:42:25 16.8 27 25.3
002EED80 2019-04-18 17:07:45 16.7 27 25.3
002EED80 2019-04-18 16:33:04 16.6 27 25.3
002EED80 2019-04-18 15:58:23 16.5 27 25.3
002EED80 2019-04-18 15:23:43 16.5 27 25.3
002EED80 2019-04-18 14:49:02 16.5 27 25.3
002EED80 2019-04-18 14:14:20 16.4 27 25.2
002EED80 2019-04-18 13:39:37 16.4 27 25.1
002EED80 2019-04-18 13:04:55 16.3 27 25
002EED80 2019-04-18 12:30:13 16.4 27 25.1
002EED80 2019-04-18 11:55:31 16.4 27 25.1
002EED80 2019-04-18 11:20:49 16.4 27 25
002EED80 2019-04-18 10:46:07 16.4 27 24.9
002EED80 2019-04-18 10:11:26 16.3 27 24.7
002EED80 2019-04-18 09:36:44 16.3 27 24.7
002EED80 2019-04-18 09:02:02 16.5 27 24.5
002EED80 2019-04-18 08:27:20 16.5 27 24.4
002EED80 2019-04-18 07:52:38 16.5 27 24.3
002EED80 2019-04-18 07:17:56 16.5 27 24.2
002EED80 2019-04-18 06:43:14 16.5 27 24.1
002EED80 2019-04-18 06:08:31 16.5 27 24.1
002EED80 2019-04-18 05:33:50 16.4 27 24.1
002EED80 2019-04-18 04:59:09 16.5 26 24.2
002EED80 2019-04-18 04:24:27 16.5 26 24.2
002EED80 2019-04-18 03:49:46 16.5 26 24.1
002EED80 2019-04-18 03:15:04 16.5 26 24.1
002EED80 2019-04-18 02:40:24 16.6 26 24.1
002EED80 2019-04-18 02:05:43 16.8 26 23.8
002EED80 2019-04-18 01:31:01 16.8 26 23.7
002EED80 2019-04-18 00:56:20 16.8 26 23.5
002EED80 2019-04-18 00:21:40 17 26 23.4
002EED80 2019-04-17 23:47:00 17 26 23.3
002EED80 2019-04-17 23:12:18 17 26 23.1
002EED80 2019-04-17 22:37:38 17 26 23
002EED80 2019-04-17 22:02:57 17 26 23.2
002EED80 2019-04-17 21:28:15 17 26 23.1
002EED80 2019-04-17 20:53:34 17 26 23
002EED80 2019-04-17 20:18:52 17 26 22.9
002EED80 2019-04-17 19:44:12 17 26 23.6
002EED80 2019-04-17 19:09:30 17 26 23.5
002EED80 2019-04-17 18:34:50 17 26 23.4
002EED80 2019-04-17 18:00:10 17 26 23.4
002EED80 2019-04-17 17:25:29 17 26 23.4
002EED80 2019-04-17 16:50:46 17 26 23.4
002EED80 2019-04-17 16:16:04 17 26 23.4
002EED80 2019-04-17 15:41:23 17 25 23.5
002EED80 2019-04-17 15:06:41 17.2 25 23.4
002EED80 2019-04-17 14:31:57 17.2 25 23.2
002EED80 2019-04-17 13:57:15 17.2 25 23.1
002EED80 2019-04-17 12:47:49 17.4 25 23
002EED80 2019-04-17 12:13:09 17.4 25 22.9
002EED80 2019-04-17 11:38:28 17.4 25 22.7
002EED80 2019-04-17 11:03:46 17.4 25 22.7
002EED80 2019-04-17 10:29:06 17.4 25 22.6
002EED80 2019-04-17 09:54:24 17.4 25 22.6
002EED80 2019-04-17 09:19:43 17.6 25 22.5
002EED80 2019-04-17 08:45:02 17.6 25 22.4
002EED80 2019-04-17 08:10:22 17.8 25 22.4
002EED80 2019-04-17 07:35:41 17.8 25 22.4
002EED80 2019-04-17 07:01:02 18 25 22
002EED80 2019-04-17 06:26:21 18 25 22
002EED80 2019-04-17 05:51:41 18 24 22.2
002EED80 2019-04-17 05:17:00 18.2 24 22.2
002EED80 2019-04-17 04:42:20 18.3 24 21.1
002EED80 2019-04-17 04:07:39 18.3 24 20.9
002EED80 2019-04-17 03:33:00 18.5 24 20.7
002EED80 2019-04-17 02:58:20 18.5 24 20.5
002EED80 2019-04-17 02:23:41 18.5 24 20.2
002EED80 2019-04-17 01:49:02 18.5 24 19.8
002EED80 2019-04-17 01:14:22 18.6 24 19.7
002EED80 2019-04-17 00:39:42 18.7 24 19.3
002EED80 2019-04-17 00:05:02 18.7 24 18.9
002EED80 2019-04-16 23:30:24 18.7 24 18.8
002EED80 2019-04-16 22:55:43 18.9 24 18.3
002EED80 2019-04-16 22:21:03 19.1 24 18.3
002EED80 2019-04-16 21:46:22 19.3 24 18.2
002EED80 2019-04-16 21:11:43 19.3 23 17.9
002EED80 2019-04-16 20:37:02 19.4 23 17.8
002EED80 2019-04-16 20:02:20 19.5 23 17.8
002EED80 2019-04-16 19:27:39 19.5 23 17.7
002EED80 2019-04-16 18:52:58 19.5 23 17.7
002EED80 2019-04-16 18:18:18 19.8 23 17.6
002EED80 2019-04-16 17:43:38 19.8 23 17.3
002EED80 2019-04-16 17:08:59 20 23 17.4
002EED80 2019-04-16 15:59:41 20.4 23 17
002EED80 2019-04-16 15:25:02 20.6 23 16.5
002EED80 2019-04-16 14:50:23 20.8 23 15.4
002EED80 2019-04-16 14:15:44 21.2 23 14.4
002EED80 2019-04-16 13:41:04 21.2 23 14.5
002EED80 2019-04-16 13:06:29 21.1 23 14.6
002EED80 2019-04-16 12:31:47 21.1 23 14.5
002EED80 2019-04-16 11:57:07 21.1 23 14.2
002EED80 2019-04-16 11:22:29 21 23 14
002EED80 2019-04-16 10:47:52 21 23 13.8
002EED80 2019-04-16 10:13:11 21 23 13.5
002EED80 2019-04-16 09:38:32 21 23 13.5
002EED80 2019-04-16 09:03:52 21 23 13.5
002EED80 2019-04-16 08:29:15 21 23 12.8
002EED80 2019-04-16 07:54:37 21 23 13
002EED80 2019-04-16 07:19:56 21 22 12.5
002EED80 2019-04-16 06:45:16 21 22 13.3
002EED80 2019-04-16 06:10:37 21 22 13.2
002EED80 2019-04-16 05:35:56 21 22 13
002EED80 2019-04-16 05:01:14 21.1 22 12.9
002EED80 2019-04-16 04:26:33 21 22 12.9
002EED80 2019-04-16 03:51:55 21.1 22 13.2
002EED80 2019-04-16 03:17:14 21.1 22 13.4
002EED80 2019-04-16 02:42:37 21.2 22 13.8
002EED80 2019-04-16 02:07:57 21.2 22 18
002EED80 2019-04-16 01:33:18 21.2 22 18.6
002EED80 2019-04-16 00:58:41 21.2 22 20.4
002EED80 2019-04-16 00:23:59 21.3 22 20.9
002EED80 2019-04-15 23:49:24 21.3 22 21.2
002EED80 2019-04-15 23:14:45 21.3 21 21.5
002EED80 2019-04-15 22:40:06 21.3 21 21.9
002EED80 2019-04-15 22:05:28 21.3 21 22.5
002EED80 2019-04-15 21:30:50 21.3 21 22.9
002EED80 2019-04-15 20:56:13 21.4 21 23.2
002EED80 2019-04-15 20:21:33 21.4 21 23.3
002EED80 2019-04-15 19:46:59 21.4 21 23.6
002EED80 2019-04-15 19:12:18 21.4 21 23.9
002EED80 2019-04-15 18:37:40 21.5 20 24.2
002EED80 2019-04-15 18:02:58 21.6 20 24.4
002EED80 2019-04-15 17:28:19 21.7 20 24.5
002EED80 2019-04-15 16:53:42 21.7 20 24.7
002EED80 2019-04-15 16:19:08 21.8 20 24.8
002EED80 2019-04-15 15:44:29 21.9 20 25
002EED80 2019-04-15 15:09:48 22 19 25.1
002EED80 2019-04-15 14:35:09 22.1 19 25.3
002EED80 2019-04-15 14:00:29 22.3 19 25.5
002EED80 2019-04-15 13:25:53 22.3 19 25.6
002EED80 2019-04-15 12:16:34 22.3 18 25.7
002EED80 2019-04-15 11:41:55 22.3 17 25.7
002EED80 2019-04-15 11:07:17 22.2 17 25.4
002EED80 2019-04-15 10:32:39 22.1 18 25.4
002EED80 2019-04-15 09:58:01 22.1 18 24.9
002EED80 2019-04-15 09:23:23 22.1 18 24.9
002EED80 2019-04-15 08:48:45 22.1 18 24.8
002EED80 2019-04-15 08:14:06 21.9 18 25
002EED80 2019-04-15 07:39:27 21.9 18 24.9
002EED80 2019-04-15 07:04:49 21.9 18 24.7
002EED80 2019-04-15 06:30:10 21.9 19 24.6
002EED80 2019-04-15 05:55:34 21.9 19 24.5
002EED80 2019-04-15 05:20:54 21.9 19 24.6
002EED80 2019-04-15 04:46:16 21.9 19 24.5
002EED80 2019-04-15 04:11:39 21.9 19 24.6
002EED80 2019-04-15 03:37:01 21.9 19 24.5
002EED80 2019-04-15 03:02:23 21.9 19 24.5
002EED80 2019-04-15 02:27:44 21.9 19 24.4
002EED80 2019-04-15 01:53:04 21.9 19 24.5
002EED80 2019-04-15 01:18:25 21.9 19 24.5
002EED80 2019-04-15 00:43:45 21.9 19 24.5
002EED80 2019-04-15 00:09:06 21.9 19 24.6
002EED80 2019-04-14 23:34:26 21.9 19 25
002EED80 2019-04-14 22:59:45 21.9 19 24.9
002EED80 2019-04-14 22:25:05 21.9 19 25
002EED80 2019-04-14 21:50:25 22 20 25.4
002EED80 2019-04-14 21:15:46 22.1 20 25.4
002EED80 2019-04-14 20:41:07 22.1 20 25.4
002EED80 2019-04-14 20:06:28 22 20 25.5
002EED80 2019-04-14 19:31:49 22.1 20 25.5
002EED80 2019-04-14 18:57:10 22 19 25.6
002EED80 2019-04-14 18:22:32 21.9 19 25.7
002EED80 2019-04-14 17:47:56 21.9 19 25.5
002EED80 2019-04-14 17:13:20 21.9 19 25.5
002EED80 2019-04-14 16:38:43 21.9 20 25.7
002EED80 2019-04-14 16:04:05 21.9 20 25.7
002EED80 2019-04-14 15:29:27 21.9 20 25.7
002EED80 2019-04-14 14:54:51 21.9 20 25.7
002EED80 2019-04-14 14:20:15 21.9 20 25.7
002EED80 2019-04-14 13:45:39 21.9 20 25.6
002EED80 2019-04-14 13:11:02 21.9 20 25.7
002EED80 2019-04-14 12:36:26 21.9 20 25.7
002EED80 2019-04-14 12:01:50 21.9 20 25.8
002EED80 2019-04-14 11:27:13 21.9 20 25.9
002EED80 2019-04-14 10:52:37 21.9 20 25.9
002EED80 2019-04-14 10:17:59 21.9 20 26
002EED80 2019-04-14 09:43:22 21.9 20 25.9
002EED80 2019-04-14 09:08:45 21.9 20 25.6
002EED80 2019-04-14 08:34:09 21.9 20 25.5
002EED80 2019-04-14 07:59:32 21.9 20 25.5
002EED80 2019-04-14 07:24:56 21.9 19 25.1
002EED80 2019-04-14 06:50:19 21.9 19 25.2
002EED80 2019-04-14 06:15:43 21.9 19 25.1
002EED80 2019-04-14 05:41:07 21.9 19 25
002EED80 2019-04-14 05:06:31 21.9 19 24.9
002EED80 2019-04-14 04:31:54 21.9 19 25
002EED80 2019-04-14 03:57:18 22 19 24.9
002EED80 2019-04-14 03:22:42 21.9 20 25
002EED80 2019-04-14 02:48:06 22 20 25
002EED80 2019-04-14 02:13:30 22 20 24.8
002EED80 2019-04-14 01:38:54 22.1 20 24.8
002EED80 2019-04-14 01:04:18 22.1 20 25.2
002EED80 2019-04-14 00:29:42 22.1 20 25.5
002EED80 2019-04-13 23:55:06 22.1 19 25.6
002EED80 2019-04-13 23:20:31 22.1 19 25.5
002EED80 2019-04-13 22:45:55 22.1 19 25.4
002EED80 2019-04-13 22:11:19 22.1 19 25.4
002EED80 2019-04-13 21:36:43 22.1 19 25.4
002EED80 2019-04-13 21:02:05 22.1 19 25.2
002EED80 2019-04-13 20:27:29 22.1 19 25.2
002EED80 2019-04-13 19:52:52 22.2 19 25
002EED80 2019-04-13 19:18:15 22.2 19 25
002EED80 2019-04-13 18:43:38 22.3 20 25
002EED80 2019-04-13 18:09:00 22.3 20 25.1
002EED80 2019-04-13 17:34:23 22.3 20 25.1
002EED80 2019-04-13 16:59:46 22.3 20 25.3
002EED80 2019-04-13 16:25:08 22.3 20 25.3
002EED80 2019-04-13 15:50:30 22.3 20 25.3
002EED80 2019-04-13 15:15:53 22.3 20 25.3
002EED80 2019-04-13 14:41:15 22.3 20 25.4
002EED80 2019-04-13 14:06:38 22.3 20 25.3
002EED80 2019-04-13 13:32:02 22.3 20 25.3
002EED80 2019-04-13 12:57:25 22.3 20 25.3
002EED80 2019-04-13 12:22:49 22.3 20 25.3
002EED80 2019-04-13 11:48:12 22.3 20 25.4
002EED80 2019-04-13 11:13:35 22.3 20 25.3
002EED80 2019-04-13 10:38:58 22.3 20 25
002EED80 2019-04-13 10:04:20 22.3 20 24.8
002EED80 2019-04-13 09:29:44 22.3 20 24.7
002EED80 2019-04-13 08:55:07 22.3 20 24.8
002EED80 2019-04-13 08:20:29 22.3 20 24.8
002EED80 2019-04-13 07:45:53 22.3 20 24.8
002EED80 2019-04-13 07:11:17 22.3 20 25
002EED80 2019-04-13 06:36:38 22.3 20 25
002EED80 2019-04-13 06:02:01 22.3 20 25.1
002EED80 2019-04-13 05:27:24 22.3 20 25
002EED80 2019-04-13 04:52:47 22.3 20 25.4
002EED80 2019-04-13 04:18:09 22.3 20 25.8
002EED80 2019-04-13 03:43:31 22.4 20 25.6
002EED80 2019-04-13 03:08:54 22.5 20 25.5
002EED80 2019-04-13 02:34:17 22.5 20 25.4
002EED80 2019-04-13 01:59:40 22.5 20 25.4
002EED80 2019-04-13 01:25:03 22.5 20 25.5
002EED80 2019-04-13 00:50:26 22.5 20 25.5
002EED80 2019-04-13 00:15:48 22.6 20 25.5
002EED80 2019-04-12 23:41:10 22.5 20 25.6
002EED80 2019-04-12 23:06:30 22.7 21 25.7
002EED80 2019-04-12 22:31:50 22.7 21 25.7
002EED80 2019-04-12 21:57:09 22.7 21 25.8
002EED80 2019-04-12 21:22:29 22.8 21 25.8
002EED80 2019-04-12 20:47:48 22.8 21 26
002EED80 2019-04-12 20:13:08 22.8 20 26
002EED80 2019-04-12 19:38:29 22.9 20 25.8
002EED80 2019-04-12 19:03:49 22.9 20 26
002EED80 2019-04-12 18:29:08 23 19 26.3
002EED80 2019-04-12 17:54:29 23 19 26.3
002EED80 2019-04-12 17:19:48 23 19 26.5
002EED80 2019-04-12 16:45:08 23 20 26.2
002EED80 2019-04-12 16:10:26 22.9 20 26.6
002EED80 2019-04-12 15:35:46 22.8 20 26.5
002EED80 2019-04-12 15:01:06 22.5 20 27.2
002EED80 2019-04-12 14:26:26 22.3 21 25.7
002EED80 2019-04-12 13:51:46 21.9 21 17.5
002EED80 2019-04-12 13:17:06 21.1 23 12